Regional Weather Roundup
Issued by NWS

Home | Current Version | Previous Version | Graphics & Text | Print | Product List | Glossary On
Versions: 1 2 3 4 5 6 7 8 9 10 11 12 13 14 15 16 17 18 19 20 21 22 23 24 25 26 27 28 29 30 31 32 33 34 35 36 37 38 39 40 41 42 43 44 45 46 47 48 49 50
000
ASUS45 KTFX 011010
RWRMT
MONTANA REGIONAL WEATHER ROUNDUP
NATIONAL WEATHER SERVICE GREAT FALLS MT
400 AM MDT WED JUL 01 2015

NOTE: "FAIR" INDICATES FEW OR NO CLOUDS BELOW 12000 FEET WITH NO
SIGNIFICANT WEATHER AND/OR OBSTRUCTIONS TO VISIBILITY.

MTZ001>007-043-011100-
WEST OF THE DIVIDE

CITY           SKY/WX    TMP DP  RH WIND       PRES   REMARKS
KALISPELL      SUNNY     55  50  83 CALM      30.01F
MISSOULA       CLEAR     61  46  57 CALM      30.07R
BUTTE          CLEAR     56  45  66 CALM      30.19S
MULLAN PASS    CLEAR     64  42  44 CALM      30.22S
DEER LODGE       N/A     55  46  71 SW3       30.18R
EUREKA           N/A     70  54  56 N10       30.05R
HAMILTON         N/A     61  50  67 S6        30.08S
PLAINS           N/A     58  47  66 CALM      30.03S
RONAN            N/A     56  51  83 N2        30.08R
THOMPSON FALLS   N/A     57  47  69 CALM      30.07R
$$

MTZ008-052>055-011100-
SOUTHWEST MONTANA

CITY           SKY/WX    TMP DP  RH WIND       PRES   REMARKS
BOZEMAN        PTCLDY    59  49  69 CALM      30.10S
DILLON         PTCLDY    62  46  55 S8        30.14S
W YELLOWSTONE  PTCLDY    50  48  93 CALM      30.25S
THREE FORKS      N/A     58  58 100 CALM      30.08S
TWIN BRIDGES     N/A     62  42  47 NE3       30.11S
$$

MTZ009-010-012-014-046-048-049-054-011100-
EAST SLOPES AND CENTRAL MONTANA

CITY           SKY/WX    TMP DP  RH WIND       PRES   REMARKS
CUT BANK       CLEAR     55  52  89 W7        30.07F FOG
GREAT FALLS    CLEAR     57  51  80 W6        30.06S
MALMSTROM AFB  CLEAR     63  53  70 NW2       30.06S
HELENA         CLEAR     68  48  48 W6        30.08R
CONRAD           N/A     54  54 100 CALM      30.09S
$$

MTZ011-013-016-021-045-047-050-051-011100-
NORTH CENTRAL MONTANA

CITY           SKY/WX    TMP DP  RH WIND       PRES   REMARKS
HAVRE          PTCLDY    54  51  90 W5        30.02R FOG
LEWISTOWN      CLEAR     55  50  83 SE6       30.09S
CHINOOK          N/A     57  55  94 CALM      30.01R
FORT BENTON      N/A     61  54  77 S5        30.04R
$$

MTZ017>020-022>027-061-062-011100-
NORTHEAST MONTANA

CITY           SKY/WX    TMP DP  RH WIND       PRES   REMARKS
JORDAN           N/A     65  55  70 N14       29.95F
SIDNEY         CLOUDY    64  59  82 N8        29.94R
WOLF POINT     CLOUDY    65  59  81 NE8       29.95R
MALTA            N/A     59  53  80 CALM      29.96R
PLENTYWOOD       N/A     61  61 100 N7        29.97S
POPLAR           N/A    N/A N/A N/A N9        29.96R
SCOBEY           N/A     56  52  86 NE1       29.97S VSB 0
$$

MTZ028>42-056>058-011100-
SOUTHCENTRAL AND SOUTHEAST MONTANA

CITY           SKY/WX    TMP DP  RH WIND       PRES   REMARKS
BAKER          FOG       61  60  97 CALM      29.94R VSB 1/4
BILLINGS       CLEAR     67  48  50 N3        30.06R
LIVINGSTON     CLEAR     57  49  74 CALM      30.11S
MILES CITY     PTCLDY    64  54  69 W9        29.95R
EKALAKA          N/A     66  54  65 SW6       29.95S
FORSYTH          N/A     68  54  60 W5        29.97F
LAUREL           N/A     65  46  50 CALM      30.04S
ROUNDUP          N/A     63  48  57 CALM      29.96F
$$

REGIONAL REPORTS...DAKOTAS

CITY           SKY/WX    TMP DP  RH WIND       PRES   REMARKS
WILLISTON      CLOUDY    60  59  96 NE7       29.95S FOG
MINOT          FOG       62  61  96 NW5       29.92S VSB 1/4
DICKINSON      CLOUDY    61  60  97 SE6       29.91R FOG
BEACH          LGT RAIN  59  59 100 CALM      29.94R VSB 1/4
CROSBY         FOG       59  59 100 CALM      29.97S VSB<1/4
BISMARCK       MOCLDY    62  60  93 CALM      29.91R
GRAND FORKS    CLEAR     57  54  89 CALM      29.92S
FARGO          MOCLDY    63  59  87 SW5       29.92S
BUFFALO SD       N/A     64  61  90 CALM      29.86S
RAPID CITY     CLEAR     66  62  87 NW9       29.92S
$$

REGIONAL REPORTS...WYOMING/IDAHO/WASHINGTON

CITY           SKY/WX    TMP DP  RH WIND       PRES   REMARKS
GILLETTE       CLEAR     58  50  75 CALM      30.06S
SHERIDAN       PTCLDY    59  50  72 S7        30.06F
BUFFALO WY     PTCLDY    68  44  42 NW9       30.13S
CODY           CLEAR     61  46  59 S3        30.13S
YELLOWSTONE LA   N/A     48  44  86 CALM      30.35S
IDAHO FALLS    CLOUDY    60  56  86 CALM      30.10S
SALMON         CLEAR     61  52  72 CALM      30.08R
BOISE          CLEAR     72  53  51 SW5       29.98R
SPOKANE        CLEAR     74  47  38 SW5       29.97S
$$

REGIONAL REPORTS...ALBERTA

CITY           SKY/WX    TMP DP  RH WIND       PRES   REMARKS
EDMONTON       MOCLDY    61  55  82 W5        29.97S
CALGARY        TSTM      59  52  77 N23G31    30.07F
LETHBRIDGE     PTCLDY    57  55  94 SW2       30.03F FOG
WATERTON GATE    N/A     52  50  93 SW3         N/A
CARDSTON         N/A     57  57 100 S2          N/A
MILK RIVER       N/A     61  57  88 N2          N/A
ONEFOUR          N/A     57  52  82 NW3         N/A
$$

REGIONAL REPORTS...SASKATCHEWAN

CITY           SKY/WX    TMP DP  RH WIND       PRES   REMARKS
SWIFT CURRENT  MOCLDY    55 N/A N/A SW7       30.00F VSB 3/4
REGINA         MOCLDY    52  52 100 S5        29.98S FOG
SASKATOON      PTCLDY    55  55 100 W6        29.95S FOG
CYPRESS HILLS    N/A     57  54  88 NE3         N/A
VAL MARIE        N/A     52  50  93 NE3         N/A
ASSINIBOIA       N/A     63  63 100 NW3         N/A
$$



USA.gov is the U.S. government's official web portal to all federal, state and local government web resources and services.